Regional Weather Roundup
Issued by NWS Jackson, KY

Home | Current Version | Previous Version | Text Only | Print | Product List | Glossary Off
Versions: 1 2 3 4 5 6 7 8 9 10 11 12 13 14 15 16 17 18 19 20 21 22 23 24 25 26 27 28 29 30 31 32 33 34 35 36 37 38 39 40 41 42 43 44 45 46 47 48 49

000
ASUS43 KJKL 282210
RWRJKL

EAST KENTUCKY HOURLY WEATHER ROUNDUP
NATIONAL WEATHER SERVICE JACKSON KY
600 PM EDT SAT MAR 28 2015

NOTE: "FAIR" INDICATES FEW OR NO CLOUDS BELOW 12,000 FEET WITH
NO SIGNIFICANT WEATHER AND/OR OBSTRUCTIONS TO VISIBILITY.

* THESE REPORTS ARE NOT UNDER NWS QUALITY CONTROL AND MAY NOT
  REPORT WEATHER SUCH AS PRECIPITATION AND FOG.

KYZ079-080-083-085-087-088-110-112-115-119-120-282300
...EASTERN KENTUCKY...

CITY           SKY/WX    TMP DP  RH WIND       PRES   REMARKS
JACKSON        SUNNY     38  10  31 VRB5      30.21R WCI  34
LONDON         SUNNY     41   9  26 N10       30.22R
SOMERSET*      SUNNY     37  14  38 N8        30.25S WCI  31
MONTICELLO*    SUNNY     43  14  31 NW9       30.26R
MIDDLESBORO*   SUNNY     42  14  31 N10       30.20R
HAZARD APT*    CLEAR     39  10  30 NW3       30.21R
BLACK MTN*       N/A     25  23  93 N5          N/A  WCI  19
PIKEVILLE APT* SUNNY     36  10  35 NW5       30.19R WCI  32
BIG SANDY*     PTCLDY    37  10  32 N9        30.20S WCI  31
MOREHEAD APT*  CLEAR     36  12  38 NW8       30.27R WCI  29
$$

KYZ035-036-041-042-044-050-067-078-099-282300
...CENTRAL KENTUCKY...

CITY           SKY/WX    TMP DP  RH WIND       PRES   REMARKS
MT STERLING*   SUNNY     37  16  41 NW9       30.26R WCI  31
FLEMING/MASON* MOSUNNY   34  12  40 N9        30.29R WCI  26
DANVILLE*      SUNNY     37  14  38 CALM      30.25S
RICHMOND*      SUNNY     39  12  33 N8        30.24S WCI  34
LEXINGTON      SUNNY     38  12  34 VRB5      30.25S WCI  34
FRANKFORT      SUNNY     40  10  29 W7        30.25S
$$

KYZ091>093-OHZ055-061-077-WVZ005-015-034-035-042-282300
...SOUTHERN OHIO/WEST VIRGINIA...

CITY           SKY/WX    TMP DP  RH WIND       PRES   REMARKS
COVINGTON      SUNNY     37  11  34 N10       30.27R WCI  30
COLUMBUS       MOSUNNY   31  11  43 N12G17    30.27R WCI  22
DAYTON         MOSUNNY   34  14  43 NW9       30.28R WCI  27
WILMINGTON     SUNNY     33  11  39 VRB6      30.26R WCI  28
HUNTINGTON     SUNNY     37   7  28 NW7       30.24R WCI  32
CHARLESTON     MOSUNNY   35   5  28 NW7G21    30.22R WCI  29
PINEVILLE*     SUNNY     35  11  36 MISG      30.21R
BECKLEY        SUNNY     29   5  36 NW12G20   30.11R WCI  19
BLUEFIELD      SUNNY     31   5  33 NW16G23   30.08R WCI  20
$$

VAZ002-007-008-TNZ017-027-036-066-071-282300
...SOUTHWEST VIRGINIA/EAST TENNESSEE...

CITY           SKY/WX    TMP DP  RH WIND       PRES   REMARKS
WISE*          SUNNY     36   5  27 NW13      30.12R WCI  27
JONESVILLE*    CLEAR     41   9  26 NW5       30.19R
ABINGDON*      SUNNY     38   6  26 N9G16     30.12R WCI  32
BRISTOL        MOSUNNY   41  12  30 NW10G20   30.15R
KNOXVILLE      MOSUNNY   46   9  22 N8G18     30.17R
OAK RIDGE      SUNNY     48   9  20 VRB7      30.19R
CROSSVILLE     SUNNY     41   7  24 N12       30.18R
NASHVILLE      SUNNY     47  10  22 N8        30.25S
$$

...KEY TO REMARKS...
VSB - VISIBILITY IN MILES
WCI - WIND CHILL INDEX
HX  - HEAT INDEX

$$


USA.gov is the U.S. government's official web portal to all federal, state and local government web resources and services.